Find Starlink 34611

NORAD ID: 64918 Int'l Des: 2025-157 Owner: SPXS Country: US Constellation: starlink operational
LEOCIRCULAR

Live Position

Loading 3D Globe...

About Starlink 34611

Description loading...

Upcoming Passes

Passes for default location (London). Set your location on the main map for personalized predictions.

Altitude History

Loading altitude history...

Two-Line Element Set

1 64918U 25157Q 26106.46720097 .00007886 00000-0 27811-3 0 9999
2 64918 53.1574 170.4818 0001019 70.9751 289.1360 15.30198408 41906
Epoch: Apr 16, 2026 • Age: 32 hours

Current Status

Altitude 476.7 km
Velocity 7.63 km/s
Sub-Earth Point 32.29°N, 65.39°E
Launch Date Jul 26, 2025
Age 0.7 years
Type internet

Technical Details

Classification Payload
Mass 575.00 kg
Dry Mass 530.00 kg
Total Mass 575.00 kg
Length 0.30 m
Diameter 4.10 m
Span 29.00 m
Shape Box + pan
Manufacturer SPXS
Bus Type Starlink V2MO
Phase Status In Orbit
Owner/State SPXS/US

Most Searched